Hourly Data Report for October 09, 2013

All times are specified in Local Standard Time (LST). Add 1 hour to adjust for Daylight Saving Time where and when it is observed.

RANKIN INLET A
NUNAVUT

62°48'38.000" N
92°06'53.000" W
32.30 m
2303405
71083
YRT

Download Data

Hourly Data (October 2013)
Hourly Data Report for October 9, 2013
Temp Definition
°C
Dew Point Temp Definition
°C
Rel Hum Definition
%
Wind Dir Definition
10's deg

Wind Spd Definition
km/h
Visibility Definition
km
Stn Press Definition
kPa
Hmdx Definition


Wind Chill Definition


Weather Definition


TIME
00:00 Legend Double Dagger -4.2 -7.5 78 31 17 24.1 101.47   -10 Cloudy
01:00 Legend Double Dagger -4.3 -7.6 78 32 20 24.1 101.49   -11 LegendNANA
02:00 Legend Double Dagger -4.3 -7.3 80 34 19 24.1 101.49   -10 LegendNANA
03:00 Legend Double Dagger -4.4 -7.2 81 35 19 24.1 101.50   -11 Cloudy
04:00 Legend Double Dagger -4.5 -7.4 80 35 11 24.1 101.50   -9 LegendNANA
05:00 Legend Double Dagger -4.7 -8.0 78 35 14 24.1 101.50   -10 LegendNANA
06:00 Legend Double Dagger -4.5 -7.4 80 34 14 24.1 101.52   -10 Mostly Cloudy
07:00 Legend Double Dagger -4.6 -7.7 79 33 10 24.1 101.53   -9 LegendNANA
08:00 Legend Double Dagger -4.6 -7.7 79 36 16 24.1 101.53   -10 LegendNANA
09:00 Legend Double Dagger -4.2 -8.2 74 32 7 24.1 101.55   -7 Mostly Cloudy
10:00 Legend Double Dagger -4.1 -7.9 75 33 8 24.1 101.57   -8 LegendNANA
11:00 Legend Double Dagger -3.9 -7.9 74 26 3 24.1 101.57   -5 LegendNANA
12:00 Legend Double Dagger -3.8 -7.8 74 21 5 24.1 101.57   -6 Mostly Cloudy
13:00 Legend Double Dagger -3.3 -7.1 75 23 7 24.1 101.56   -6 LegendNANA
14:00 Legend Double Dagger -3.5 -7.1 76 24 5 24.1 101.54   -6 LegendNANA
15:00 Legend Double Dagger -3.7 -7.0 78 23 14 24.1 101.53   -9 Cloudy
16:00 Legend Double Dagger -3.9 -7.0 79 21 9 24.1 101.55   -8 LegendNANA
17:00 Legend Double Dagger -4.0 -7.3 78 23 15 24.1 101.58   -9 LegendNANA
18:00 Legend Double Dagger -4.2 -7.8 76 16 15 24.1 101.57   -10 Cloudy
19:00 Legend Double Dagger -4.0 -7.0 80 18 14 24.1 101.52   -9 LegendNANA
20:00 Legend Double Dagger -3.3 -5.9 82 19 17 24.1 101.51   -9 LegendNANA
21:00 Legend Double Dagger -2.7 -6.0 78 17 20 24.1 101.48   -9 Cloudy
22:00 Legend Double Dagger -2.0 -5.3 78 17 19 24.1 101.48   -8 LegendNANA
23:00 Legend Double Dagger -1.6 -5.1 77 18 18 24.1 101.50   -7 LegendNANA

Notes on Data Quality.

Legend

  • E = Estimated
  • M = Missing
  • NA = Not Available
  • ‡ = Partner data that is not subject to review by the National Climate Archives
Date modified: